Location: Newark
(41.2353°N, 79.5361°W)
Time: 16:49:18
(UTC+00:00)

Envisat - Visible Passes

Search period start: 28 January 2020 00:00
Search period end: 07 February 2020 00:00
Orbit: 764 x 766 km, 98.1° (Epoch: 28 January)

Date Brightness Start Highest point End Pass type
(mag) Time Alt. Az. Time Alt. Az. Time Alt. Az.
28 Jan 6.2 00:37:20 10° WSW 00:39:46 13° W 00:42:13 10° WNW visible
28 Jan 5.5 11:04:47 10° NE 11:08:53 24° E 11:12:57 10° SSE visible
28 Jan 5.0 23:58:13 10° SSW 00:02:39 30° W 00:07:06 10° NW visible
29 Jan 6.5 10:30:59 10° E 10:31:42 10° E 10:32:25 10° E visible
29 Jan 3.4 23:20:41 10° S 23:25:43 68° WSW 23:30:49 10° NNW visible
30 Jan 4.5 11:29:42 10° NNE 11:34:32 42° E 11:39:19 10° S visible
31 Jan 5.9 00:25:04 10° SW 00:28:21 17° W 00:31:40 10° NW visible
31 Jan 5.9 10:53:54 10° NE 10:57:30 19° E 11:01:03 10° SE visible
31 Jan 4.6 23:46:36 10° SSW 23:51:17 38° W 23:56:01 10° NNW visible
01 Feb 3.3 11:54:58 10° NNE 12:00:04 75° ESE 12:05:08 10° S visible
01 Feb 3.1 23:09:21 10° SSE 23:14:25 85° WSW 23:19:32 10° NNW visible
02 Feb 4.9 11:18:35 10° NNE 11:23:11 33° E 11:27:44 10° SSE visible
03 Feb 5.6 00:13:05 10° SW 00:16:57 22° W 00:20:51 10° NW visible
03 Feb 6.2 10:43:12 10° NE 10:46:05 15° E 10:48:56 10° SE visible
03 Feb 4.1 23:35:04 10° S 23:39:57 48° W 23:44:52 10° NNW visible
04 Feb 3.8 11:43:44 10° NNE 11:48:45 59° E 11:53:45 10° S visible
04 Feb 3.0 22:58:05 10° SSE 23:03:08 76° ENE 23:08:14 10° N visible
05 Feb 6.3 00:40:45 10° WSW 00:42:43 12° W 00:44:41 10° WNW visible
05 Feb 5.4 11:07:33 10° NE 11:11:48 26° E 11:16:02 10° SSE visible
06 Feb 5.2 00:01:17 10° SSW 00:05:34 27° W 00:09:53 10° NW visible
06 Feb 6.4 10:32:59 10° ENE 10:34:39 11° E 10:36:19 10° ESE visible
06 Feb 3.6 23:23:37 10° S 23:28:37 62° W 23:33:40 10° NNW visible
